www.pogodaiklimat.ru

Погода и климат >> Архив погоды >> Мексика >> Aguascalientes


ПОГОДА в Aguascalientes

  • Прогноз погоды в Aguascalientes
  • Монитор погоды в Aguascalientes
  • Климат города

АРХИВ ПОГОДЫ в Aguascalientes

Время (UTC), дата Ветер
(напр.,м/с)
 
Видим.   Явления Облачность Т
(С)
Тd
(С)
f
(%)
Тe
(С)
Тes
(С)
Комфортность P
(гПа)
Po
(гПа)
Тmin
(С)
Tmax
(С)
R
(мм)
R24
(мм)
S
(см)
03 13.07 штиль 0 10 км 6/0 1000 м
[Cs]
+18.2 +13.0 72 +18 +18 1012.6 818.9
12 13.07 штиль 0 10 км ясно +10.8 +9.2 90 +10 +10 1018.9 820.1 +10.8 +26.6
15 13.07 штиль 0 20 км ясно +17.0 +8.5 57 +17 +28 1021.6 821.4
18 13.07 В 2 20 км мгла 6/0
[Ci]
+23.8 +6.5 33 +24 +43 комфорт 1019.0 820.4 +10.6 +24.2
21 13.07 штиль 0 20 км мгла 8/5 1200 м
[Cu hum Ci sp]
+27.8 +5.4 24 +27 +36 жарко 1013.9 818.2
12 14.07 штиль 0 10 км ясно +14.8 +11.5 81 +15 +15 1015.5 820.1 +14.8 +29.4
15 14.07 штиль 0 20 км ясно +19.0 +10.0 56 +20 +31 1018.8 821.1
00 15.07 С 6 20 км мгла 9/3 1000 м
[Cu med, cong Cs]
+27.8 +7.1 27 +27 +28 жарко 1008.1 815.9 +10.6 +29.6
03 15.07 Ю 6 10 км зарница 10/3 1200 м
[Cb calv Ac cuf Ci ing]
+20.8 +8.1 44 +22 +22 комфорт 1008.8 818.0
12 15.07 С 2 10 км мгла 10/6 1000 м
[Sc Ac As]
+16.2 +12.4 78 +16 +16 1014.8 819.4 +16.2 +29.6
15 15.07 С 2 20 км мгла 10/6 1200 м
[Sc Ac trans]
+18.4 +12.3 68 +19 +21 1017.0 820.2
00 16.07 ЮВ 6 20 км мгла 10/3 1000 м
[Cu med, cong Ac trans Ci sp]
+26.2 +9.2 34 +27 +27 жарко 1008.7 816.3 +16.2 +28.8
03 16.07 Ю 6 10 км зарница 10/3 1200 м
[Frnb Ac cuf Ci ing]
+20.6 +10.4 52 +22 +22 комфорт 1010.2 818.7
12 16.07 штиль 0 10 км ясно +13.6 +11.8 89 +13 +13 1017.1 819.8 +13.2 +28.8
15 16.07 штиль 0 20 км мгла 4/0
[Ci]
+18.0 +10.6 62 +18 +28 1020.1 821.0
18 16.07 штиль 0 15 км мгла 10/6 1200 м
[Cu med, cong Ac trans]
+24.8 +10.3 40 +26 +30 жарко 1017.7 820.1 +13.2 +25.0
21 16.07 штиль 0 15 км мгла 10/4 1200 м
[Cu med, cong Cs]
+27.8 +7.7 28 +27 +38 жарко 1012.0 817.4
00 17.07 Ю 6 15 км мгла 6/6 1000 м
[Sc diur, vesp]
+22.8 +9.0 41 +24 +25 комфорт 1009.8 816.9 +13.2 +28.8
03 17.07 штиль 0 10 км зарница 6/4 1200 м
[Frnb Ac As]
+20.0 +12.0 60 +21 +21 комфорт 1010.9 818.9 0.3
12 17.07 штиль 0 10 км в посл. час дождь 5/5 1000 м
[Sc diur, vesp]
+15.2 +13.6 90 +15 +15 1018.7 820.9 6
15 17.07 штиль 0 20 км мгла 5/5 1200 м
[Sc diur, vesp]
+17.8 +10.7 63 +18 +23 1020.7 821.7
18 17.07 ЮВ 2 20 км мгла 6/6 1200 м
[Cu med, cong]
+24.2 +8.1 36 +25 +33 комфорт 1018.2 820.8 +14.4 +24.6
21 17.07 ЮЗ 2 20 км мгла 5/5 1200 м
[Cu med, cong]
+26.6 +7.8 30 +26 +35 жарко 1014.0 819.1
00 18.07 Ю 6 15 км мгла 10/4 1000 м
[Cu med, cong Cs]
+25.2 +8.2 34 +26 +26 жарко 1011.2 818.0 +14.4 +27.6
03 18.07 З 2 10 км зарница 8/1 1200 м
[Sc Ci sp]
+22.4 +9.5 44 +24 +24 комфорт 1011.1 819.3 0.0
12 18.07 штиль 0 10 км 5/5 1000 м
[Sc diur, vesp]
+17.6 +11.8 69 +18 +18 1018.4 821.1 +13.4 +27.6 9
15 18.07 штиль 0 20 км 5/4 1200 м
[Sc diur, vesp Ci]
+17.8 +9.7 59 +18 +24 1021.0 821.8
18 18.07 штиль 0 20 км мгла 4/4 1200 м
[Cu hum]
+24.0 +9.2 39 +25 +42 комфорт 1018.6 820.7 +13.0 +24.4
21 18.07 СЗ 2 20 км мгла 5/5 1200 м
[Cu hum]
+27.0 +7.4 29 +27 +35 жарко 1013.8 818.4
00 19.07 З 6 15 км мгла 9/3 1000 м
[Cu med, cong Ci sp]
+26.8 +6.8 28 +26 +27 жарко 1012.1 818.4 +13.0 +28.0
03 19.07 штиль 0 10 км 8/0 2000 м
[Ac trans Ci sp]
+21.6 +10.6 50 +23 +23 комфорт 1009.0 817.7
12 19.07 штиль 0 10 км ясно +15.0 +13.4 90 +15 +15 1014.3 818.7 +14.8 +28.0
15 19.07 штиль 0 15 км мгла ясно +21.0 +11.1 53 +23 +34 комфорт 1016.5 819.3
18 19.07 штиль 0 15 км мгла 3/3 1200 м
[Cu hum]
+26.0 +8.9 34 +26 +47 жарко 1014.2 818.4 +14.4 +26.6
21 19.07 С 2 20 км мгла 5/5 1200 м
[Cu hum]
+29.0 +4.1 20 +27 +35 жарко 1009.7 816.3

 

Местоположение метеостанции Aguascalientes (Мексика): широта 21.87 долгота -102.30 высота над уровнем моря 1874 м.

В архиве по умолчанию представлена погода в Aguascalientes за последнюю неделю. Архивные данные за месяц целиком и за предыдущие месяцы, начиная с января 2011 года, Вы можете получить, выбрав интересующий диапазон дат из раскрывающегося списка и нажав кнопку "Ввод!".


*Определитесь, кто Вы:
робот инопланетянин человек

Внимание! Время в таблицах - всемирное. Для получения местного времени необходимо прибавить поправку, которая в Aguascalientes равна -6 ч.

Смотрите также архив погоды в соседних городах и на ближайших метеорологических станциях:

Погода в Lagos De Moreno (Мексика) (70 км)
Погода в Colotlan (Мексика) (103 км)
Погода в Zacatecas (Мексика) (103 км)
Погода в Huejucar (Мексика) (124 км)
Погода в San Luis Potosi (Мексика) (148 км)
Погода в Guanajuato (Мексика) (149 км)
Погода в Guadalajara (Мексика) (169 км)
Погода в Zamora (Мексика) (210 км)
Погода в Sombrerete (Мексика) (237 км)
Погода в Rio Verde (Мексика) (240 км)

Пояснения к столбцам:

Ветер - указаны скорость ветра в м/с - средняя за 10 мин, порывы в срок и между сроками (в фигурных скобках) и направление, откуда дует ветер: С - северный, СВ - северо-восточный, В - восточный, ЮВ - юго-восточный, Ю - южный, ЮЗ - юго-западный, З - западный, СЗ - северо-западный.
Видимость - горизонтальная дальность видимости в метрах или километрах. При видимости от 1 до 10 км при отсутствии осадков обычно наблюдается дымка, при ухудшении видимости до 1 км и менее - туман. В сухую погоду видимость может ухудшаться дымом, пылью или мглою.
Явления - указаны атмосферные явления, наблюдавшиеся в срок или в последний час перед сроком; фигурными скобками обозначены явления, наблюдавшиеся между сроками (за 1-3 часа до срока); квадратными скобками обозначены град или гололедные отложения с указанием их диаметра в мм.
Облачность - указаны через наклонную черту общая и нижняя облачность в баллах и высота нижней границы облаков в метрах; квадратными скобками обозначены формы облаков: Ci - перистые, Cs - перисто-слоистые, Cc - перисто-кучевые, Ac - высококучевые, As - высокослоистые, Sc - слоисто-кучевые, Ns - слоисто-дождевые, Cu - кучевые, Cb - кучево-дождевые. Подробнее классификацию облаков см. в Атласе облаков (PDF).
T - Температура воздуха - температура, измеренная на высоте 2 м над землей.
Td - Температура точки росы - температура, при понижении до которой содержащийся в воздухе водяной пар достигнет насыщения.
f - Относительная влажность воздуха - влажноcть воздуха, измеренная на высоте 2 м над землей.
Te - Эффективная температура - температура, которую ощущает одетый по сезону человек в тени. Характеристика душности погоды. При расчете учитывается влияние влажности воздуха и скорости ветра на теплоощущения человека.
Tes - Эффективная температура на солнце - температура, которую ощущает человек, с поправкой на солнечный нагрев. Характеристика знойности погоды. Зависит от высоты солнца над горизонтом, облачности и скорости ветра. Ночью, в пасмурную погоду, а также при ветре 12 м/с и более поправка равна нулю.
P - Атмосферное давление - приведенное к уровню моря атмосферное давление.
Po - Атмосферное давление - измеренное на уровне метеостанции атмосферное давление.
Tmin - Минимальная температура - минимум температуры воздуха на высоте 2 м над землей.
Tmax - Максимальная температура - максимум температуры воздуха на высоте 2 м над землей.
R - Количество осадков - Количество выпавших осадков за период времени, мм. При наведении курсора мыши на число - период времени, за который выпало указанное количество осадков.
R24 - Количество осадков - Количество выпавших осадков за 24 часа, мм.
S - Снежный покров - Высота снежного покрова, см. При наведении курсора мыши на число - состояние снежного покрова и степень покрытия местности в баллах.